This demonstration page uses our WeatherBlox Daily Observations layout. Learn more.

Left ArrowRight Arrow

Hourly Observations for May 27, 2018

Temp ( °F °C ) Dew Point ( °F °C ) Humidity (%) Winds ( mph kmh ) Pressure ( in mb ) Visibility ( mi km ) Precip ( " mm )
12:53 am 00:53 Clear 78 25.6 58 14.4 50 50 S 8 13 29.76 1008 10 16 0.00 0.00
1:53 am 01:53 Clear 75 23.9 58 14.4 55 55 S 5 7 29.76 1008 10 16 0.00 0.00
2:53 am 02:53 Clear 73 22.8 58 14.4 59 59 S 7 11 29.76 1008 10 16 0.00 0.00
3:53 am 03:53 Clear 74 23.3 58 14.4 57 57 SSW 8 13 29.77 1008 10 16 0.00 0.00
4:53 am 04:53 Clear 73 22.8 59 15 62 62 SSW 8 13 29.78 1009 10 16 0.00 0.00
5:53 am 05:53 Clear 71 21.7 59 15 66 66 SSW 7 11 29.80 1009 10 16 0.00 0.00
6:53 am 06:53 Sunny 69 20.6 60 15.6 73 73 S 6 9 29.80 1009 10 16 0.00 0.00
7:53 am 07:53 Sunny 72 22.2 62 16.7 71 71 SSW 9 15 29.81 1010 10 16 0.00 0.00
8:53 am 08:53 Sunny 78 25.6 66 18.9 67 67 SSW 10 17 29.81 1010 10 16 0.00 0.00
9:53 am 09:53 Sunny 83 28.3 63 17.2 51 51 SW 16 26 29.82 1010 10 16 0.00 0.00
10:53 am 10:53 Sunny 85 29.4 60 15.6 43 43 SSW 13 20 29.82 1010 10 16 0.00 0.00
11:53 am 11:53 Sunny 89 31.7 60 15.6 38 38 SW 12 19 29.82 1010 10 16 0.00 0.00
12:53 pm 12:53 Sunny 90 32.2 57 13.9 33 33 S 13 20 29.82 1010 10 16 0.00 0.00
1:53 pm 13:53 Sunny 93 33.9 54 12.2 27 27 S 15 24 29.80 1009 10 16 0.00 0.00
2:53 pm 14:53 Sunny 94 34.4 53 11.7 25 25 SSW 17 28 29.80 1009 10 16 0.00 0.00
3:53 pm 15:53 Sunny 95 35 53 11.7 24 24 S 14 22 29.78 1009 10 16 0.00 0.00
4:53 pm 16:53 Sunny 94 34.4 55 12.8 27 27 S 20 31 29.77 1008 10 16 0.00 0.00
5:53 pm 17:53 Sunny 93 33.9 52 11.1 25 25 SSE 21 33 29.76 1008 10 16 0.00 0.00
6:53 pm 18:53 Sunny 92 33.3 51 10.6 25 25 S 14 22 29.74 1007 10 16 0.00 0.00
7:53 pm 19:53 Sunny 89 31.7 54 12.2 30 30 S 12 19 29.78 1009 10 16 0.00 0.00
8:53 pm 20:53 Sunny 85 29.4 52 11.1 32 32 S 8 13 29.79 1009 10 16 0.00 0.00
9:53 pm 21:53 Clear 82 27.8 53 11.7 37 37 SSE 8 13 29.82 1010 10 16 0.00 0.00
10:53 pm 22:53 Clear 80 26.7 55 12.8 42 42 S 8 13 29.86 1011 10 16 0.00 0.00
11:53 pm 23:53 Clear 77 25 55 12.8 47 47 S 7 11 29.86 1011 10 16 0.00 0.00

Powered by AerisWeather